Location: Maiden
(35.5760°N, 81.2120°W)
Time: 02:38:48
(UTC-04:00)

A-11 Canister half - Pass Details

Date: 05 August 2020
Orbit: 1527 x 1682 km, 47.3° (Epoch: 25 September)

Event Time Altitude Azimuth Distance (km) Brightness Sun altitude
Rises 16:33:26 0° 273° (W) 4,932 12.4 45.4°
Reaches altitude 10° 16:36:52 10° 280° (W) 3,944 12.1 44.7°
Maximum altitude 16:46:27 44° 351° (N) 2,175 10.3 42.8°
Drops below altitude 10° 16:55:53 10° 61° (ENE) 3,879 10.8 40.9°
Sets 16:59:14 0° 68° (ENE) 4,846 11.2 40.2°
